User: anonymous   Login
Location: Christian Reformed Church
(43.0975°N, 93.8113°W)
Time: 05:41:28
(UTC+00:00)
Language:

S3M - Orbit

View from above orbital plane
View from above orbital plane
View from above satellite
View from above satellite

Ground track
Ground track

The orbit is defined by the following mean orbital elements,

1 12508U          26040.85576265 +.00000000 +00000-0 +56498-4 0 00001
2 12508  82.9617 322.1541 0037803  10.2911 349.9012 13.76631460    09
Epoch (UTC): 09 February 2026 20:32:17
Eccentricity: 0.0037803
inclination: 82.9617°
perigee height: 948 km
apogee height: 1004 km
right ascension of ascending node: 322.1541°
argument of perigee: 10.2911°
revolutions per day: 13.76631460
mean anomaly at epoch: 349.9012°

The dashed part of the orbit path shows where the satellite is in the earth's shadow,  

DLR